Starlink 30889

operational
NORAD ID: 58368 Int'l Des: 2023-177 Owner: SPXS Country: US Constellation: starlink
LEOCIRCULAR

About Starlink 30889

Description loading...

Live Position

Loading 3D Globe...

Upcoming Passes

Altitude History

Altitude vs Time

uPlot chart will show altitude changes over time

Two-Line Element Set

1 58368U 23177T 25302.51963522 -.00000227 00000-0 -16966-5 0 9991
2 58368 43.0049 344.3941 0001173 277.3862 82.6847 15.02535004108488
Epoch: Oct 29, 2025 • Age: 36 hours

Current Status

Altitude 560.3 km
Velocity 7.59 km/s
Sub-Earth Point 29.70°N, 76.85°E
Launch Date Nov 18, 2023
Age 1.9 years
Type internet

Technical Details

Classification Payload
Mass 730.00 kg
Dry Mass 700.00 kg
Total Mass 730.00 kg
Length 0.30 m
Diameter 4.10 m
Span 29.00 m
Shape Box + pan
Manufacturer SPXS
Bus Type Starlink V2M
Phase Status In Orbit
Owner/State SPXS/US

Large Constellations

Loading constellations...